ONEWEB-0021 (45134 NORAD) Tracking and Keplerian Element Data

This shows tracking and keplerian element data for the satellite.

Feedback or suggestion? Click here.




ElementValue
Catalog45134
NameONEWEB-0021
Epoch Orbit3936
Epoch Day297.91667824
Epoch Year2020
RAAN86.3632
Inclination88.0486
Eccentricity0.0019453
Argument of Perigee85.5296
Mean Anonmoly29.07
Mean Motion13.44151135
Decay Rate5.961E-05
L11 45134U 20008D 20297.91667824 .00005961 00000-0 10239-1 0 9997
L22 45134 88.0486 86.3632 0019453 85.5296 29.0700 13.44151135 39365

Live tracking and technical data element details for ONEWEB-0021 (NORAD 45134). ONEWEB-0021 can be tracked NOW for your location showing map with azimuth and elevation plus other details from your city location.

Track the satellite on the map from your city or location and see movement details for azimuth, elevation, latitude, longitude, range, height, and movement on the map or in text.







IsCatalogInMostPopularTable: catalog: 45134, numindb: 53
Update: records affected: 1



GetName: 45134 ONEWEB-0021

Hit Count: updated at: Sat, 24 Oct 2020 23:23:16 GMT